Location: Baia de Cri?
(46.1667°N, 22.7167°E)
Time: 09:12:53
(UTC+00:00)

Lacrosse 4 Rocket - Pass Details

Date: 15 January 2026
Orbit: 513 x 564 km, 68.0° (Epoch: 10 February)

Event Time Altitude Azimuth Distance (km) Brightness Sun altitude
Rises 05:22:12 0° 218° (SW) 2,657 4.7 -7.9°
Reaches altitude 10° 05:24:24 10° 221° (SW) 1,764 3.7 -7.5°
Maximum altitude 05:28:17 62° 303° (WNW) 590 1.2 -6.9°
Drops below altitude 10° 05:32:10 10° 25° (NNE) 1,754 3.9 -6.3°
Sets 05:34:21 0° 29° (NNE) 2,641 4.9 -6.0°
